Regional Weather Roundup
Issued by NWS

Home | Current Version | Previous Version | Graphics & Text | Print | Product List | Glossary Off
Versions: 1 2 3 4 5 6 7 8 9 10 11 12 13 14 15 16 17 18 19 20 21 22 23 24 25 26 27 28 29 30 31 32 33 34 35 36 37 38 39 40 41 42 43 44 45 46 47 48 49 50

000
ASUS43 KOAX 240610
RWRNE

WEATHER ROUNDUP FOR NEBRASKA
NATIONAL WEATHER SERVICE OMAHA NE
100 AM CDT TUE OCT 24 2017

NOTES: SATELLITE DATA IS BEING USED TO AUGMENT CLOUD COVER ABOVE
       12000 FEET.
       "FAIR" INDICATES FEW OR NO CLOUDS BELOW 12,000 FEET WITH NO
       SIGNIFICANT WEATHER AND/OR OBSTRUCTIONS TO VISIBILITY.


NEZ001>004-019>022-054>056-240700-
NEBRASKA PANHANDLE

CITY           SKY/WX    TMP DP  RH WIND       PRES   REMARKS
SCOTTSBLUFF    CLEAR     39  19  44 W13       30.51R WCI  31
6HR MIN TEMP:  39; 6HR MAX TEMP:  53;

ALLIANCE       CLEAR     31  20  63 W9        30.46R WCI  23
6HR MIN TEMP:  27; 6HR MAX TEMP:  50;

CHADRON        CLEAR     41  19  41 W14       30.47S
6HR MIN TEMP:  37; 6HR MAX TEMP:  52;

GORDON         FAIR      40  23  50 NW10      30.42S WCI  34
6HR MIN TEMP:  37; 6HR MAX TEMP:  51;

KIMBALL        CLEAR     35  19  53 NW9       30.52S WCI  28
SIDNEY         CLEAR     33  18  53 W10       30.49S WCI  25
6HR MIN TEMP:  33; 6HR MAX TEMP:  50;

$$

NEZ057>060-069>072-079>082-240700-
SOUTHWEST NEBRASKA

CITY           SKY/WX    TMP DP  RH WIND       PRES   REMARKS
NORTH PLATTE   CLEAR     38  25  59 NW10      30.35F WCI  31
6HR MIN TEMP:  35; 6HR MAX TEMP:  56;

IMPERIAL       CLEAR     40  22  48 NW12      30.43R WCI  33
6HR MIN TEMP:  39; 6HR MAX TEMP:  54;

LEXINGTON      CLEAR     44  24  44 W15       30.29F
MCCOOK         CLEAR     40  23  50 W12       30.37S WCI  33
6HR MIN TEMP:  40; 6HR MAX TEMP:  56;

OGALLALA       CLEAR     45  21  39 NW14      30.42S
$$

NEZ005>010-023>029-035>040-094-240700-
NORTH CENTRAL NEBRASKA

CITY           SKY/WX    TMP DP  RH WIND       PRES   REMARKS
VALENTINE      CLEAR     48  24  39 NW17G30   30.31S
6HR MIN TEMP:  48; 6HR MAX TEMP:  54;

AINSWORTH      PTCLDY    47  27  46 N23G36    30.29S
BROKEN BOW     CLEAR     48  24  39 NW24G31   30.25F
6HR MIN TEMP:  48; 6HR MAX TEMP:  53;

O`NEILL        PTCLDY    47  30  52 NW21G26   30.19S
ORD            CLEAR     47  26  44 NW20G28   30.20F
6HR MIN TEMP:  47; 6HR MAX TEMP:  51;

THEDFORD       PTCLDY    47  25  41 NW18G25   30.33S
$$

NEZ041-046>049-061>064-073>077-083>087-240700-
SOUTH CENTRAL NEBRASKA

CITY           SKY/WX    TMP DP  RH WIND       PRES   REMARKS
GRAND ISLAND   PTCLDY    44  29  55 W13       30.21F
6HR MIN TEMP:  44; 6HR MAX TEMP:  53;

AURORA         PTCLDY    48  28  46 NW9G18    30.18S
HASTINGS       CLEAR     46  26  45 NW16      30.21F
6HR MIN TEMP:  43; 6HR MAX TEMP:  55;

HEBRON         CLEAR     49  30  47 NW13G18   30.18F
HOLDREGE       CLEAR     48  25  40 NW18G24   30.27F
KEARNEY        CLEAR     49  24  37 NW17      30.24F
YORK           CLEAR     48  30  49 NW15G24   30.15F
$$

NEZ011>018-030>034-042>045-240700-
NORTHEAST NEBRASKA

CITY           SKY/WX    TMP DP  RH WIND       PRES   REMARKS
NORFOLK        CLOUDY    50  31  48 N32G48    30.10S
6HR MIN TEMP:  47; 6HR MAX TEMP:  52;

ALBION         MOCLDY    49  30  47 NW18G24   30.15S
BLAIR          PTCLDY    49  34  57 NW13      30.04F
COLUMBUS       CLOUDY    49  31  49 NW16      30.12F
FREMONT        MOCLDY    51  32  48 NW23G36   30.07F
TEKAMAH        PTCLDY    51  31  46 NW16G28   30.04S
6HR MIN TEMP:  50; 6HR MAX TEMP:  54;

WAYNE          PTCLDY    48  26  42 N30G40    30.09R
$$

NEZ050>053-065>068-078-088>093-240700-
SOUTHEAST NEBRASKA

CITY           SKY/WX    TMP DP  RH WIND       PRES   REMARKS
LINCOLN        CLOUDY    53  31  42 MISG      30.11F
6HR MIN TEMP:  50; 6HR MAX TEMP:  57;

OMAHA EPPLEY   PTCLDY    52  33  48 W16G30    30.03S
6HR MIN TEMP:  51; 6HR MAX TEMP:  54;

BEATRICE       PTCLDY    52  32  47 NW18G26   30.12F
FALLS CITY     CLOUDY    50  36  58 W17       30.05F
6HR MIN TEMP:  48; 6HR MAX TEMP:  58; 6HR PCP: TRACE;

NEBRASKA CITY  MOCLDY    49  37  63 W16       30.05F
PLATTSMOUTH    MOCLDY    50  36  59 NW18G28   30.04F
$$

NEZ044-045-051>053-067-240700-
OMAHA AREA

CITY           SKY/WX    TMP DP  RH WIND       PRES   REMARKS
OMAHA EPPLEY   PTCLDY    52  33  48 W16G30    30.03S
6HR MIN TEMP:  51; 6HR MAX TEMP:  54;

BLAIR          PTCLDY    49  34  57 NW13      30.04F
FREMONT        MOCLDY    51  32  48 NW23G36   30.07F
MILLARD        MOCLDY    52  36  54 NW17G23   30.05F
OFFUTT AFB     MOCLDY    50  35  57 NW12      30.04S
PLATTSMOUTH    MOCLDY    50  36  59 NW18G28   30.04F
WAHOO          MOCLDY    51  32  47 NW18G24   30.07F
$$



USA.gov is the U.S. government's official web portal to all federal, state and local government web resources and services.